Location: Krakow
(50.0830°N, 19.9170°E)
Time: 15:21:51
(UTC+01:00)

Vanguard 1 Rocket - All Passes

Search period start: 27 January 2023 00:00
Search period end: 06 February 2023 00:00
Orbit: 650 x 4225 km, 34.3° (Epoch: 26 January)

Date Brightness Start Highest point End Pass type
(mag) Time Alt. Az. Time Alt. Az. Time Alt. Az.
27 Jan - 12:44:11 10° SSW 12:56:40 34° SE 13:15:59 10° E daylight
27 Jan - 15:07:14 10° WSW 15:24:15 51° S 15:48:29 10° ESE daylight
27 Jan - 17:33:40 10° W 17:54:09 47° SSW 18:17:14 10° SE visible
27 Jan - 20:04:08 10° W 20:22:42 27° SW 20:40:10 10° S visible
28 Jan - 11:35:19 10° S 11:45:02 24° SE 11:59:21 10° E daylight
28 Jan - 13:56:14 10° SW 14:10:49 46° SSE 14:33:30 10° E daylight
28 Jan - 16:21:12 10° WSW 16:39:57 50° S 17:04:10 10° ESE visible
28 Jan - 18:49:26 10° W 19:09:27 36° SSW 19:30:03 10° SSE visible
28 Jan - 21:26:02 10° W 21:36:06 14° SW 21:45:41 10° SSW visible
29 Jan - 10:28:59 10° SSE 10:34:12 13° ESE 10:40:37 10° E daylight
29 Jan - 12:46:01 10° SSW 12:58:12 37° SSE 13:17:51 10° E daylight
29 Jan - 15:09:28 10° WSW 15:25:58 51° S 15:50:04 10° ESE daylight
29 Jan - 17:36:02 10° W 17:55:39 43° SSW 18:18:25 10° SE visible
29 Jan - 20:07:14 10° W 20:23:46 23° SW 20:39:56 10° S visible
30 Jan - 11:36:44 10° S 11:46:29 27° SE 12:01:35 10° E daylight
30 Jan - 13:58:25 10° SW 14:12:32 47° SSE 14:35:08 10° ESE daylight
30 Jan - 16:23:34 10° WSW 16:41:37 48° SSW 17:05:31 10° SE visible
30 Jan - 18:52:04 10° W 19:10:43 31° SW 19:30:32 10° SSE visible
31 Jan - 10:29:07 10° SSE 10:35:33 16° SE 10:44:12 10° E daylight
31 Jan - 12:48:03 10° SW 12:59:53 40° SSE 13:19:36 10° E daylight
31 Jan - 15:11:49 10° WSW 15:27:45 49° S 15:51:32 10° ESE daylight
31 Jan - 17:38:31 10° W 17:57:07 39° SSW 18:19:17 10° SSE visible
31 Jan - 20:11:03 10° W 20:24:50 18° SW 20:38:44 10° SSW visible
01 Feb - 11:38:28 10° SSW 11:48:04 30° SE 12:03:38 10° E daylight
01 Feb - 14:00:43 10° WSW 14:14:21 48° S 14:36:42 10° ESE daylight
01 Feb - 16:26:00 10° W 16:43:17 45° SSW 17:06:39 10° SE visible
01 Feb - 18:55:00 10° W 19:11:59 27° SW 19:30:29 10° S visible
02 Feb - 10:30:06 10° S 10:37:03 19° SE 10:47:02 10° E daylight
02 Feb - 12:50:14 10° SW 13:01:41 42° SSE 13:21:17 10° E daylight
02 Feb - 15:14:15 10° WSW 15:29:33 47° S 15:52:51 10° ESE daylight
02 Feb - 17:41:10 10° W 17:58:36 34° SSW 18:19:48 10° SSE visible
02 Feb - 20:16:22 10° WSW 20:25:56 14° SW 20:35:44 10° SSW visible
03 Feb - 11:40:26 10° SSW 11:49:49 33° SSE 12:05:33 10° E daylight
03 Feb - 14:03:07 10° WSW 14:16:16 47° S 14:38:09 10° ESE daylight
03 Feb - 16:28:33 10° W 16:44:58 41° SSW 17:07:31 10° SE visible
03 Feb - 18:58:24 10° W 19:13:16 22° SW 19:29:43 10° S visible
04 Feb - 10:31:35 10° S 10:38:42 22° SE 10:49:29 10° E daylight
04 Feb - 12:52:34 10° SW 13:03:36 43° SSE 13:22:52 10° ESE daylight
04 Feb - 15:16:46 10° WSW 15:31:25 45° S 15:53:59 10° SE daylight
04 Feb - 17:44:03 10° W 18:00:06 30° SW 18:19:52 10° SSE visible
05 Feb - 09:25:14 10° SE 09:28:13 12° SE 09:31:43 10° ESE daylight
05 Feb - 11:42:36 10° SW 11:51:41 35° SSE 12:07:20 10° E daylight
05 Feb - 14:05:36 10° WSW 14:18:14 45° S 14:39:29 10° ESE daylight
05 Feb - 16:31:15 10° W 16:46:41 36° SSW 17:08:04 10° SSE daylight
05 Feb - 19:02:40 10° WSW 19:14:36 17° SW 19:27:49 10° SSW visible
